Regional Weather Roundup
Issued by NWS

Home | Current Version | Previous Version | Graphics & Text | Print | Product List | Glossary Off
Versions: 1 2 3 4 5 6 7 8 9 10 11 12 13 14 15 16 17 18 19 20 21 22 23 24 25 26 27 28 29 30 31 32 33 34 35 36 37 38 39 40 41 42 43 44 45 46 47 48 49 50

000
ASUS43 KMKX 110900
RWRWI

WISCONSIN REGIONAL WEATHER ROUNDUP
NATIONAL WEATHER SERVICE MILWAUKEE/SULLIVAN WI
300 AM CST SUN DEC 11 2016

NOTE: "FAIR" INDICATES FEW OR NO CLOUDS BELOW 12,000 FEET WITH NO
SIGNIFICANT WEATHER AND/OR OBSTRUCTIONS TO VISIBILITY.

WIZ001-002-006>008-014>016-023>028-111000-
NORTHWEST WISCONSIN

CITY           SKY/WX    TMP DP  RH WIND       PRES   REMARKS
SUPERIOR ARPT  CLOUDY    10   4  79 CALM      30.21R
ASHLAND        CLOUDY     6   2  83 CALM      30.21S
HAYWARD        CLOUDY    11   6  81 E6        30.13F WCI   1
SIREN          MOCLDY    12   8  82 NE6       30.12F WCI   3
CUMBERLAND     FLURRIES  12   9  85 E8        30.08F WCI   1
RICE LAKE      LGT SNOW  13  10  85 NE7       30.11F WCI   3
CHETEK         LGT SNOW  13  10  87 E6        30.10F WCI   4
LADYSMITH      LGT SNOW  13   9  85 E8        30.13F WCI   1
EAU CLAIRE     NOT AVBL
MENOMONIE      LGT SNOW  16  13  89 E9        30.09F WCI   4
NEW RICHMOND   LGT SNOW  14  10  84 E9        30.07F WCI   2
OSCEOLA        LGT SNOW  15  11  85 E7        30.11F WCI   5
$$

WIZ003>005-009-010-017-018-111000-
NORTH CENTRAL WISCONSIN

CITY           SKY/WX    TMP DP  RH WIND       PRES   REMARKS
MANITOWISH WTR FLURRIES   7   5  89 CALM      30.12F
ARBOR VITAE    FLURRIES  11   7  81 SE3       30.12F
WOODRUFF       FLURRIES  11   7  81 SE3       30.12F
RHINELANDER    CLOUDY    10   6  84 E8        30.13F WCI  -2
EAGLE RIVER    FLURRIES   8   2  76 E5        30.14F WCI   0
LAND O LAKES   CLOUDY     6   2  85 SE3       30.16F
PHILLIPS       FLURRIES   9   6  87 E6        30.11F WCI  -1
TOMAHAWK       LGT SNOW  10   7  88 CALM      30.14F
MEDFORD        LGT SNOW  11   7  85 E8        30.09F WCI  -1
MERRILL        LGT SNOW  11   8  88 E3        30.16F
$$

WIZ029-030-035-036-043>047-111000-
CENTRAL WISCONSIN

CITY           SKY/WX    TMP DP  RH WIND       PRES   REMARKS
WAUSAU         LGT SNOW  12   9  87 E8        30.13F FOG     WCI   0
MOSINEE        LGT SNOW  14  12  92 E9        30.14F WCI   2
MARSHFIELD     LGT SNOW  14  11  87 E10       30.09F FOG     WCI   1
STEVENS POINT  LGT SNOW  13  11  91 E8        30.15F WCI   2
WAUPACA        LGT SNOW  19  15  85 CALM      30.19F
WAUTOMA        LGT SNOW  18  16  92 E8        30.15F FOG     WCI   8
WISC RAPIDS    LGT SNOW  16  14  92 E8        30.13F FOG     WCI   5
CAMP DOUGLAS   LGT SNOW  18  16  93 E10       30.09F FOG     WCI   6
$$

WIZ011>013-019>022-031-037>040-048>050-111000-
NORTHEAST WISCONSIN

CITY           SKY/WX    TMP DP  RH WIND       PRES   REMARKS
ANTIGO         LGT SNOW  10   7  88 E5        30.15F WCI   2
SHAWANO        LGT SNOW  17  13  84 E3        30.23F
OCONTO         CLOUDY    14  11  87 N3        30.25F
STURGEON BAY   LGT SNOW  17  14  88 CALM      30.24F FOG
GREEN BAY      LGT SNOW  19  16  88 NE6       30.22F FOG     WCI  11
MANITOWOC      NOT AVBL
APPLETON       LGT SNOW  19  16  86 E5        30.18F WCI  13
CLINTONVILLE   LGT SNOW  18  12  79 E6        30.21F WCI   9
OSHKOSH        LGT SNOW  20  17  88 SE8       30.17F FOG     WCI  10
$$

WIZ032>034-041-042-053>061-111000-
SOUTHWEST WISCONSIN

CITY           SKY/WX    TMP DP  RH WIND       PRES   REMARKS
LA CROSSE      LGT SNOW  20  16  84 E7        30.08F FOG     WCI  11
SPARTA         LGT SNOW  18  16  94 E8        30.10F WCI   7
VIROQUA        CLOUDY    19  17  95 E14       30.03F VSB 1   WCI   5
BOSCOBEL       LGT SNOW  23  20  88 CALM      30.09F FOG
PRAIRIE DU CHI LGT SNOW  22  19  88 E7        30.07F WCI  14
PLATTEVILLE    CLOUDY    22  22 100 E14       30.08F WCI   9
$$

WIZ056-057-062-063-064-067-068-111000-
SOUTH CENTRAL WISCONSIN

CITY           SKY/WX    TMP DP  RH WIND       PRES   REMARKS
REEDSBURG      LGT SNOW  19  18  97 E5        30.12F WCI  12
BARABOO/DELLS  LGT SNOW  19  17  92 E6        30.12F VSB 1   WCI  11
LONE ROCK      NOT AVBL
MINERAL POINT  LGT SNOW  23  23 100 E10       30.07F WCI  12
MADISON        LGT SNOW  20  18  92 SE8       30.12F FOG     WCI  10
MIDDLETON      CLOUDY    23  20  91 SE8       30.13F WCI  13
WATERTOWN      LGT SNOW  21  21 100 SE8       30.16F WCI  11
MONROE         LGT SNOW  23  21  93 E8        30.10F WCI  14
JANESVILLE     LGT SNOW  25  23  93 SE9       30.14F WCI  15
$$

WIZ051-052-058>065-066-070>072-111000-
SOUTHEAST WISCONSIN

CITY           SKY/WX    TMP DP  RH WIND       PRES   REMARKS
MILWAUKEE      LGT SNOW  24  21  88 S7        30.19F FOG     WCI  16
WAUKESHA       LGT SNOW  21  19  93 SE8       30.19F WCI  12
MILWAUKEE/TIMM LGT SNOW  23  19  86 S5        30.21F WCI  17
RACINE         LGT SNOW  25  22  88 S6        30.21F FOG     WCI  18
BURLINGTON     LGT SNOW  27  26  96 SE3       30.18F
KENOSHA        LGT SNOW  24  21  88 S8        30.19F FOG     WCI  15
FOND DU LAC    LGT SNOW  21  16  81 SE10      30.18F WCI  10
SHEBOYGAN      LGT SNOW  20  17  88 E6        30.20F FOG     WCI  12
WEST BEND      LGT SNOW  21  21 100 SE3       30.19F
JUNEAU         LGT SNOW  20  18  93 E7        30.18F VSB 1   WCI  11
$$

LSZ147-162-111000-
LAKE SUPERIOR

STATION/POSITION TIME  TEMP    WIND        PRES    WAVE
                       AIR SEA DIR/SP/G            HT/PER
                 (UTC) (F)     (DEG/KT/KT) (MB)    (FT/S)
DEVILS ISLAND    0800   15     160/  3/  3 1024.8F
PORT WING        0840    8     120/  3/  6 1023.0S
SAXON HARBOR     0840    7     190/  3/  5 1023.0F
$$

LMZ867-665-643>646-111000-
LAKE MICHIGAN

STATION/POSITION TIME  TEMP    WIND        PRES    WAVE
                       AIR SEA DIR/SP/G            HT/PER
                 (UTC) (F)     (DEG/KT/KT) (MB)    (FT/S)
CHAMBERS ISLAND  0840   17      CALM  /  3 1024.0F
NORTHPORT PIER   0840   17        CALM     1024.7F
SISTER BAY       0820   17     150/  7/  8   N/A
ALGOMA LAKESHORE 0736          350/  6/  7   N/A
KEWAUNEE LAKESHO 0830   17     350/  3/  6 1023.8F
SHEBOYGAN LAKESH 0800   21     230/  3/  4 1025.3R
PORT WASHINGTON  0840   24     230/  5/  8 1024.0F
KENOSHA   LAKESH 0800   25     200/  9/ 11 1023.4
$$

TC  - TEMPERATURE IN CELSIUS
VSB - VISIBILITY IN STATUTE MILES
WCI - WIND CHILL INDEX
HX  - HEAT INDEX





USA.gov is the U.S. government's official web portal to all federal, state and local government web resources and services.